User: anonymous   Login
Location: Unspecified
(0.0000°N, 0.0000°E)
Time: 20:40:54
(UTC+00:00)
Language:

USA 223 - Orbit

View from above orbital plane
View from above orbital plane
View from above satellite
View from above satellite

Ground track
Ground track

The orbit data is extracted from the following two-line orbital elements,

1 37232U 10063A   17193.44589796 0.00000000  00000-0  00000-0 0    03
2 37232   2.9569 186.6804 0039197  97.9237 262.5689  1.00270000    07
Epoch (UTC): 12 July 2017 10:42:05
Eccentricity: 0.0039197
inclination: 2.9569°
perigee height: 35621 km
apogee height: 35952 km
right ascension of ascending node: 186.6804°
argument of perigee: 97.9237°
revolutions per day: 1.00270000
mean anomaly at epoch: 262.5689°
orbit number at epoch: 0

The dashed part of the orbit path shows where the satellite is in the earth's shadow,  

DLR